| time (UTC) | temp F | wind direction | speed MPH | gust MPH | rain 1hr in | rain 24hr in | rain mn in | humidity % | barometer mb |
| 20260505114058 | 44 | 0 | 0.0 | 2.0 | 0.00 | 0.00 | 0.00 | 73 | 1010.6 |
| 20260505113600 | 44 | 0 | 0.0 | 2.0 | 0.00 | 0.00 | 0.00 | 73 | 1010.4 |
| 20260505113059 | 44 | 0 | 0.0 | 0.0 | 0.00 | 0.00 | 0.00 | 72 | 1010.4 |
| 20260505112558 | 44 | 0 | 0.0 | 0.0 | 0.00 | 0.00 | 0.00 | 71 | 1010.4 |
| 20260505112059 | 44 | 0 | 0.0 | 0.0 | 0.00 | 0.00 | 0.00 | 71 | 1010.7 |
| 20260505111602 | 44 | 0 | 0.0 | 0.0 | 0.00 | 0.00 | 0.00 | 70 | 1010.4 |
| 20260505111058 | 45 | 0 | 0.0 | 0.0 | 0.00 | 0.00 | 0.00 | 69 | 1010.3 |
| 20260505110557 | 45 | 0 | 0.0 | 0.0 | 0.00 | 0.00 | 0.00 | 66 | 1010.2 |
| 20260505102055 | 46 | 0 | 0.0 | 0.0 | 0.00 | 0.00 | 0.00 | 58 | 1009.5 |
| 20260505101559 | 46 | 0 | 0.0 | 0.0 | 0.00 | 0.00 | 0.00 | 58 | 1009.6 |
| 20260505101101 | 46 | 0 | 0.0 | 0.0 | 0.00 | 0.00 | 0.00 | 57 | 1009.6 |
| 20260505100556 | 46 | 0 | 0.0 | 0.0 | 0.00 | 0.00 | 0.00 | 57 | 1009.6 |
| 20260505100103 | 47 | 0 | 0.0 | 2.0 | 0.00 | 0.00 | 0.00 | 56 | 1009.4 |
| 20260505095557 | 47 | 0 | 0.0 | 2.0 | 0.00 | 0.00 | 0.00 | 56 | 1009.4 |
| 20260505095059 | 47 | 0 | 0.0 | 3.0 | 0.00 | 0.00 | 0.00 | 55 | 1009.5 |
| 20260505094608 | 47 | 50 | 1.0 | 3.0 | 0.00 | 0.00 | 0.00 | 55 | 1009.3 |
| 20260505094058 | 47 | 50 | 1.0 | 3.0 | 0.00 | 0.00 | 0.00 | 54 | 1009.3 |
| 20260505093600 | 47 | 0 | 0.0 | 3.0 | 0.00 | 0.00 | 0.00 | 54 | 1009.5 |
| 20260505093057 | 47 | 0 | 0.0 | 4.0 | 0.00 | 0.00 | 0.00 | 54 | 1009.4 |
| 20260505092601 | 47 | 50 | 1.0 | 4.0 | 0.00 | 0.00 | 0.00 | 54 | 1009.2 |
| 20260505092058 | 48 | 50 | 1.0 | 4.0 | 0.00 | 0.00 | 0.00 | 54 | 1008.9 |
| 20260505091557 | 48 | 49 | 1.0 | 4.0 | 0.00 | 0.00 | 0.00 | 54 | 1008.7 |
| 20260505091055 | 48 | 49 | 1.0 | 5.0 | 0.00 | 0.00 | 0.00 | 55 | 1008.6 |
| 20260505090556 | 48 | 46 | 1.0 | 5.0 | 0.00 | 0.00 | 0.00 | 55 | 1008.6 |
| 20260505090108 | 48 | 26 | 2.0 | 6.0 | 0.00 | 0.00 | 0.00 | 56 | 1008.5 |
| 20260505085556 | 48 | 26 | 2.0 | 6.0 | 0.00 | 0.00 | 0.00 | 56 | 1008.1 |
| 20260505085057 | 48 | 26 | 3.0 | 6.0 | 0.00 | 0.00 | 0.00 | 57 | 1008.0 |
| 20260505084558 | 48 | 37 | 0.0 | 4.0 | 0.00 | 0.00 | 0.00 | 59 | 1008.0 |
| 20260505084056 | 48 | 30 | 1.0 | 4.0 | 0.00 | 0.00 | 0.00 | 59 | 1007.9 |
| 20260505083558 | 49 | 30 | 1.0 | 4.0 | 0.00 | 0.00 | 0.00 | 60 | 1007.8 |
| 20260505083109 | 49 | 31 | 2.0 | 4.0 | 0.00 | 0.00 | 0.00 | 61 | 1007.6 |
| 20260505082557 | 49 | 30 | 2.0 | 4.0 | 0.00 | 0.00 | 0.00 | 61 | 1007.7 |
| 20260505082057 | 49 | 31 | 1.0 | 2.0 | 0.00 | 0.00 | 0.00 | 62 | 1007.6 |
| 20260505081558 | 49 | 31 | 1.0 | 3.0 | 0.00 | 0.00 | 0.00 | 62 | 1007.6 |
| 20260505081057 | 49 | 31 | 0.0 | 4.0 | 0.00 | 0.00 | 0.00 | 61 | 1008.0 |
| 20260505080557 | 49 | 31 | 1.0 | 4.0 | 0.00 | 0.00 | 0.00 | 61 | 1008.0 |
| 20260505080059 | 50 | 32 | 1.0 | 3.0 | 0.00 | 0.00 | 0.00 | 61 | 1008.0 |
| 20260505075557 | 50 | 32 | 1.0 | 3.0 | 0.00 | 0.00 | 0.00 | 59 | 1007.7 |
| 20260505075055 | 50 | 32 | 1.0 | 4.0 | 0.00 | 0.00 | 0.00 | 58 | 1007.6 |
| 20260505074555 | 50 | 32 | 1.0 | 4.0 | 0.00 | 0.00 | 0.00 | 59 | 1007.3 |
| 20260505074056 | 50 | 0 | 1.0 | 4.0 | 0.00 | 0.00 | 0.00 | 58 | 1007.3 |
| 20260505073555 | 50 | 32 | 1.0 | 4.0 | 0.00 | 0.00 | 0.00 | 59 | 1007.3 |
| 20260505073102 | 50 | 0 | 0.0 | 4.0 | 0.00 | 0.00 | 0.00 | 60 | 1007.5 |
| 20260505072557 | 50 | 0 | 2.0 | 4.0 | 0.00 | 0.00 | 0.00 | 59 | 1007.3 |
| 20260505072056 | 50 | 13 | 0.0 | 3.0 | 0.00 | 0.00 | 0.00 | 59 | 1008.1 |
| 20260505071558 | 51 | 13 | 0.0 | 3.0 | 0.00 | 0.00 | 0.00 | 59 | 1008.5 |
| 20260505071057 | 51 | 13 | 1.0 | 3.0 | 0.00 | 0.00 | 0.00 | 58 | 1008.9 |
| 20260505070556 | 51 | 13 | 1.0 | 3.0 | 0.00 | 0.00 | 0.00 | 57 | 1008.8 |
| 20260505070059 | 51 | 13 | 0.0 | 2.0 | 0.00 | 0.00 | 0.00 | 56 | 1008.4 |
| 20260505065556 | 51 | 0 | 0.0 | 4.0 | 0.00 | 0.00 | 0.00 | 55 | 1008.1 |
| 20260505065055 | 51 | 0 | 1.0 | 4.0 | 0.00 | 0.00 | 0.00 | 55 | 1008.1 |
| 20260505064556 | 51 | 0 | 1.0 | 6.0 | 0.00 | 0.00 | 0.00 | 55 | 1008.4 |
| 20260505064055 | 51 | 352 | 1.0 | 6.0 | 0.00 | 0.00 | 0.00 | 55 | 1008.5 |
| 20260505063555 | 51 | 326 | 3.0 | 6.0 | 0.00 | 0.00 | 0.00 | 56 | 1008.9 |
| 20260505063100 | 51 | 17 | 2.0 | 8.0 | 0.00 | 0.00 | 0.00 | 55 | 1008.3 |
| 20260505062556 | 51 | 29 | 3.0 | 8.0 | 0.00 | 0.00 | 0.00 | 57 | 1007.8 |
| 20260505062056 | 51 | 27 | 3.0 | 8.0 | 0.00 | 0.00 | 0.00 | 58 | 1007.8 |
| 20260505061605 | 51 | 21 | 3.0 | 5.0 | 0.00 | 0.00 | 0.00 | 59 | 1008.1 |
| 20260505061056 | 51 | 13 | 2.0 | 5.0 | 0.00 | 0.00 | 0.00 | 59 | 1008.5 |
| 20260505060557 | 51 | 13 | 1.0 | 5.0 | 0.00 | 0.00 | 0.00 | 60 | 1008.6 |
| 20260505055556 | 51 | 0 | 1.0 | 4.0 | 0.00 | 0.00 | 0.00 | 58 | 1007.7 |
| 20260505055100 | 51 | 22 | 2.0 | 5.0 | 0.00 | 0.00 | 0.00 | 57 | 1008.6 |
| 20260505054557 | 51 | 22 | 2.0 | 5.0 | 0.00 | 0.00 | 0.00 | 56 | 1008.5 |
| 20260505054055 | 51 | 24 | 3.0 | 5.0 | 0.00 | 0.00 | 0.00 | 55 | 1008.2 |
| 20260505053555 | 51 | 23 | 3.0 | 5.0 | 0.00 | 0.00 | 0.00 | 56 | 1008.1 |
| 20260505053111 | 50 | 20 | 2.0 | 5.0 | 0.00 | 0.00 | 0.00 | 58 | 1007.9 |
| 20260505052559 | 50 | 9 | 2.0 | 5.0 | 0.00 | 0.00 | 0.00 | 59 | 1007.9 |
| 20260505052059 | 50 | 9 | 1.0 | 8.0 | 0.00 | 0.00 | 0.00 | 59 | 1008.1 |
| 20260505051602 | 50 | 22 | 3.0 | 9.0 | 0.00 | 0.00 | 0.00 | 59 | 1008.0 |
| 20260505051056 | 50 | 360 | 5.0 | 9.0 | 0.00 | 0.00 | 0.00 | 60 | 1007.5 |
| 20260505050556 | 50 | 19 | 4.0 | 11.0 | 0.00 | 0.00 | 0.00 | 59 | 1007.6 |
| 20260505050129 | 51 | 23 | 5.0 | 11.0 | 0.00 | 0.00 | 0.00 | 58 | 1007.5 |
| 20260505041611 | 51 | 48 | 6.0 | 18.0 | 0.00 | 0.00 | 0.00 | 58 | 1007.1 |
| 20260505041057 | 52 | 39 | 9.0 | 20.0 | 0.00 | 0.00 | 0.00 | 56 | 1007.2 |
| 20260505040559 | 53 | 19 | 8.0 | 20.0 | 0.00 | 0.00 | 0.00 | 54 | 1007.3 |
| 20260505040108 | 53 | 338 | 9.0 | 17.0 | 0.00 | 0.00 | 0.00 | 51 | 1007.7 |
| 20260505035602 | 53 | 15 | 8.0 | 17.0 | 0.00 | 0.00 | 0.00 | 52 | 1007.8 |
| 20260505035056 | 53 | 21 | 7.0 | 17.0 | 0.00 | 0.00 | 0.00 | 55 | 1007.9 |
| 20260505034605 | 52 | 360 | 5.0 | 13.0 | 0.00 | 0.00 | 0.00 | 59 | 1007.8 |
| 20260505034055 | 53 | 324 | 5.0 | 13.0 | 0.00 | 0.00 | 0.00 | 58 | 1007.9 |
| 20260505033556 | 53 | 9 | 5.0 | 14.0 | 0.00 | 0.00 | 0.00 | 55 | 1007.9 |
| 20260505033055 | 54 | 9 | 6.0 | 14.0 | 0.00 | 0.00 | 0.00 | 53 | 1007.8 |
| 20260505032555 | 54 | 26 | 6.0 | 23.0 | 0.00 | 0.00 | 0.00 | 52 | 1007.7 |
| 20260505032100 | 55 | 10 | 9.0 | 23.0 | 0.00 | 0.00 | 0.00 | 48 | 1007.0 |
| 20260505031601 | 55 | 355 | 9.0 | 17.0 | 0.00 | 0.00 | 0.00 | 45 | 1006.8 |
| 20260505031056 | 55 | 344 | 8.0 | 14.0 | 0.00 | 0.00 | 0.00 | 46 | 1006.6 |
| 20260505030556 | 55 | 329 | 6.0 | 13.0 | 0.00 | 0.00 | 0.00 | 46 | 1007.0 |
| 20260505030056 | 55 | 350 | 5.0 | 10.0 | 0.00 | 0.00 | 0.00 | 46 | 1006.8 |
| 20260505025555 | 56 | 335 | 5.0 | 10.0 | 0.00 | 0.00 | 0.00 | 45 | 1006.8 |
| 20260505025055 | 56 | 17 | 5.0 | 16.0 | 0.00 | 0.00 | 0.00 | 45 | 1006.5 |
| 20260505024555 | 56 | 13 | 6.0 | 16.0 | 0.00 | 0.00 | 0.00 | 44 | 1006.4 |
| 20260505024055 | 56 | 342 | 7.0 | 15.0 | 0.00 | 0.00 | 0.00 | 43 | 1006.3 |
| 20260505023555 | 56 | 30 | 7.0 | 16.0 | 0.00 | 0.00 | 0.00 | 43 | 1006.1 |
| 20260505023056 | 56 | 350 | 6.0 | 16.0 | 0.00 | 0.00 | 0.00 | 44 | 1006.4 |
| 20260505022555 | 56 | 24 | 8.0 | 17.0 | 0.00 | 0.00 | 0.00 | 44 | 1006.5 |
| 20260505022055 | 57 | 10 | 8.0 | 20.0 | 0.00 | 0.00 | 0.00 | 43 | 1006.5 |
| 20260505021555 | 57 | 13 | 10.0 | 24.0 | 0.00 | 0.00 | 0.00 | 43 | 1006.6 |
| 20260505021056 | 57 | 350 | 9.0 | 24.0 | 0.00 | 0.00 | 0.00 | 42 | 1006.5 |
| 20260505020556 | 58 | 5 | 9.0 | 21.0 | 0.00 | 0.00 | 0.00 | 42 | 1006.5 |
| 20260505020057 | 58 | 5 | 9.0 | 21.0 | 0.00 | 0.00 | 0.00 | 42 | 1006.2 |
| 20260505015556 | 58 | 23 | 8.0 | 18.0 | 0.00 | 0.00 | 0.00 | 41 | 1006.3 |
| 20260505015056 | 58 | 24 | 7.0 | 14.0 | 0.00 | 0.00 | 0.00 | 41 | 1006.3 |
| 20260505014606 | 58 | 316 | 6.0 | 18.0 | 0.00 | 0.00 | 0.00 | 41 | 1006.2 |
| 20260505014056 | 58 | 11 | 7.0 | 22.0 | 0.00 | 0.00 | 0.00 | 40 | 1006.0 |
| 20260505013555 | 58 | 11 | 6.0 | 22.0 | 0.00 | 0.00 | 0.00 | 40 | 1005.8 |
| 20260505013055 | 59 | 323 | 7.0 | 18.0 | 0.00 | 0.00 | 0.00 | 40 | 1005.6 |
| 20260505012556 | 59 | 12 | 7.0 | 18.0 | 0.00 | 0.00 | 0.00 | 39 | 1005.6 |
| 20260505012056 | 59 | 10 | 10.0 | 18.0 | 0.00 | 0.00 | 0.00 | 39 | 1005.5 |
| 20260505011604 | 60 | 5 | 10.0 | 18.0 | 0.00 | 0.00 | 0.00 | 38 | 1005.5 |
| 20260505011055 | 60 | 28 | 8.0 | 20.0 | 0.00 | 0.00 | 0.00 | 37 | 1005.4 |
| 20260505010554 | 61 | 23 | 8.0 | 20.0 | 0.00 | 0.00 | 0.00 | 37 | 1005.2 |
| 20260505010057 | 61 | 5 | 9.0 | 22.0 | 0.00 | 0.00 | 0.00 | 37 | 1005.0 |
| 20260505005554 | 61 | 19 | 11.0 | 22.0 | 0.00 | 0.00 | 0.00 | 37 | 1004.5 |
| 20260505005057 | 62 | 345 | 9.0 | 20.0 | 0.00 | 0.00 | 0.00 | 36 | 1004.5 |
| 20260505004555 | 62 | 34 | 12.0 | 21.0 | 0.00 | 0.00 | 0.00 | 35 | 1004.5 |
| 20260505004057 | 63 | 321 | 10.0 | 21.0 | 0.00 | 0.00 | 0.00 | 34 | 1004.3 |
| 20260505003559 | 64 | 331 | 11.0 | 21.0 | 0.00 | 0.00 | 0.00 | 33 | 1004.0 |
| 20260505003055 | 65 | 345 | 10.0 | 21.0 | 0.00 | 0.00 | 0.00 | 32 | 1004.0 |
| 20260505002556 | 65 | 319 | 8.0 | 18.0 | 0.00 | 0.00 | 0.00 | 32 | 1003.9 |
| 20260505002057 | 66 | 16 | 7.0 | 23.0 | 0.00 | 0.00 | 0.00 | 31 | 1003.8 |
| 20260505001623 | 66 | 10 | 9.0 | 23.0 | 0.00 | 0.00 | 0.00 | 31 | 1003.7 |
| 20260505001059 | 67 | 17 | 11.0 | 23.0 | 0.00 | 0.00 | 0.00 | 30 | 1003.7 |
| 20260505000556 | 68 | 11 | 8.0 | 20.0 | 0.00 | 0.00 | 0.00 | 30 | 1003.7 |
| 20260505000133 | 69 | 310 | 8.0 | 19.0 | 0.00 | 0.00 | 0.00 | 29 | 1003.5 |
| 20260504235559 | 69 | 351 | 9.0 | 19.0 | 0.00 | 0.00 | 0.00 | 29 | 1003.5 |
| 20260504235056 | 69 | 24 | 9.0 | 19.0 | 0.00 | 0.00 | 0.00 | 29 | 1003.5 |
| 20260504234612 | 70 | 20 | 9.0 | 22.0 | 0.00 | 0.00 | 0.00 | 29 | 1003.3 |
| 20260504234054 | 70 | 11 | 9.0 | 22.0 | 0.00 | 0.00 | 0.00 | 29 | 1003.3 |
| 20260504233556 | 70 | 19 | 9.0 | 21.0 | 0.00 | 0.00 | 0.00 | 29 | 1003.2 |
| 20260504233106 | 71 | 15 | 7.0 | 19.0 | 0.00 | 0.00 | 0.00 | 29 | 1003.2 |
| 20260504232555 | 71 | 327 | 10.0 | 22.0 | 0.00 | 0.00 | 0.00 | 29 | 1003.2 |
| 20260504232055 | 72 | 15 | 8.0 | 22.0 | 0.00 | 0.00 | 0.00 | 29 | 1003.2 |
| 20260504231556 | 72 | 355 | 9.0 | 20.0 | 0.00 | 0.00 | 0.00 | 29 | 1003.2 |
| 20260504231055 | 72 | 32 | 9.0 | 18.0 | 0.00 | 0.00 | 0.00 | 28 | 1003.2 |
| 20260504230557 | 73 | 21 | 9.0 | 21.0 | 0.00 | 0.00 | 0.00 | 28 | 1003.1 |
| 20260504230055 | 73 | 22 | 9.0 | 21.0 | 0.00 | 0.00 | 0.00 | 28 | 1003.0 |
| 20260504225556 | 74 | 29 | 9.0 | 23.0 | 0.00 | 0.00 | 0.00 | 29 | 1002.9 |
| 20260504225055 | 74 | 34 | 9.0 | 23.0 | 0.00 | 0.00 | 0.00 | 28 | 1002.8 |
| 20260504224610 | 74 | 5 | 10.0 | 20.0 | 0.00 | 0.00 | 0.00 | 27 | 1002.7 |
| 20260504224056 | 75 | 16 | 9.0 | 16.0 | 0.00 | 0.00 | 0.00 | 27 | 1002.6 |
| 20260504223556 | 75 | 19 | 7.0 | 17.0 | 0.00 | 0.00 | 0.00 | 28 | 1002.5 |
| 20260504223102 | 75 | 319 | 7.0 | 18.0 | 0.00 | 0.00 | 0.00 | 27 | 1002.4 |
| 20260504222556 | 75 | 13 | 6.0 | 18.0 | 0.00 | 0.00 | 0.00 | 27 | 1002.4 |
| 20260504222056 | 75 | 352 | 9.0 | 18.0 | 0.00 | 0.00 | 0.00 | 27 | 1002.3 |
| 20260504221557 | 75 | 344 | 8.0 | 18.0 | 0.00 | 0.00 | 0.00 | 26 | 1002.1 |
| 20260504221055 | 75 | 11 | 6.0 | 19.0 | 0.00 | 0.00 | 0.00 | 27 | 1002.1 |
| 20260504220558 | 75 | 355 | 8.0 | 19.0 | 0.00 | 0.00 | 0.00 | 26 | 1001.9 |
| 20260504220100 | 76 | 24 | 5.0 | 18.0 | 0.00 | 0.00 | 0.00 | 26 | 1001.9 |
| 20260504215555 | 76 | 30 | 8.0 | 18.0 | 0.00 | 0.00 | 0.00 | 27 | 1001.8 |
| 20260504215100 | 76 | 20 | 8.0 | 18.0 | 0.00 | 0.00 | 0.00 | 26 | 1001.7 |
| 20260504214555 | 76 | 17 | 8.0 | 17.0 | 0.00 | 0.00 | 0.00 | 26 | 1001.7 |
| 20260504214056 | 77 | 32 | 7.0 | 17.0 | 0.00 | 0.00 | 0.00 | 26 | 1001.7 |
| 20260504213556 | 77 | 329 | 8.0 | 18.0 | 0.00 | 0.00 | 0.00 | 27 | 1001.7 |
| 20260504213125 | 77 | 326 | 8.0 | 18.0 | 0.00 | 0.00 | 0.00 | 27 | 1001.7 |
| 20260504212556 | 77 | 19 | 5.0 | 17.0 | 0.00 | 0.00 | 0.00 | 27 | 1001.6 |
| 20260504212056 | 77 | 32 | 7.0 | 17.0 | 0.00 | 0.00 | 0.00 | 27 | 1001.6 |
| 20260504211605 | 78 | 34 | 6.0 | 15.0 | 0.00 | 0.00 | 0.00 | 27 | 1001.5 |
| 20260504211055 | 78 | 360 | 5.0 | 15.0 | 0.00 | 0.00 | 0.00 | 28 | 1001.5 |
| 20260504210557 | 78 | 27 | 5.0 | 16.0 | 0.00 | 0.00 | 0.00 | 29 | 1001.4 |
| 20260504210059 | 77 | 5 | 6.0 | 18.0 | 0.00 | 0.00 | 0.00 | 29 | 1001.4 |
| 20260504205559 | 78 | 49 | 7.0 | 18.0 | 0.00 | 0.00 | 0.00 | 29 | 1001.4 |
| 20260504205056 | 78 | 355 | 7.0 | 16.0 | 0.00 | 0.00 | 0.00 | 30 | 1001.3 |
| 20260504204557 | 78 | 29 | 8.0 | 17.0 | 0.00 | 0.00 | 0.00 | 29 | 1001.2 |
| 20260504204054 | 79 | 5 | 6.0 | 17.0 | 0.00 | 0.00 | 0.00 | 31 | 1001.3 |
| 20260504203559 | 79 | 25 | 8.0 | 17.0 | 0.00 | 0.00 | 0.00 | 32 | 1001.1 |
| 20260504203119 | 79 | 38 | 6.0 | 16.0 | 0.00 | 0.00 | 0.00 | 32 | 1001.1 |
| 20260504202557 | 79 | 301 | 9.0 | 16.0 | 0.00 | 0.00 | 0.00 | 33 | 1001.0 |
| 20260504202055 | 79 | 5 | 4.0 | 16.0 | 0.00 | 0.00 | 0.00 | 34 | 1001.1 |
| 20260504201554 | 79 | 332 | 8.0 | 20.0 | 0.00 | 0.00 | 0.00 | 33 | 1001.1 |
| 20260504201057 | 78 | 311 | 9.0 | 20.0 | 0.00 | 0.00 | 0.00 | 33 | 1001.1 |
| 20260504200556 | 79 | 36 | 10.0 | 19.0 | 0.00 | 0.00 | 0.00 | 33 | 1001.1 |
| 20260504200057 | 79 | 318 | 9.0 | 19.0 | 0.00 | 0.00 | 0.00 | 32 | 1001.0 |
| 20260504195601 | 79 | 345 | 7.0 | 19.0 | 0.00 | 0.00 | 0.00 | 33 | 1001.1 |
| 20260504195059 | 79 | 292 | 9.0 | 17.0 | 0.00 | 0.00 | 0.00 | 33 | 1001.1 |
| 20260504194606 | 79 | 17 | 9.0 | 20.0 | 0.00 | 0.00 | 0.00 | 31 | 1000.8 |
| 20260504194056 | 80 | 314 | 9.0 | 20.0 | 0.00 | 0.00 | 0.00 | 31 | 1000.8 |
| 20260504193557 | 80 | 315 | 9.0 | 20.0 | 0.00 | 0.00 | 0.00 | 31 | 1000.7 |
| 20260504193109 | 81 | 26 | 6.0 | 15.0 | 0.00 | 0.00 | 0.00 | 30 | 1000.7 |
| 20260504192555 | 80 | 315 | 9.0 | 19.0 | 0.00 | 0.00 | 0.00 | 28 | 1000.6 |
| 20260504192055 | 80 | 297 | 10.0 | 23.0 | 0.00 | 0.00 | 0.00 | 28 | 1000.6 |
| 20260504191556 | 80 | 11 | 12.0 | 23.0 | 0.00 | 0.00 | 0.00 | 28 | 1000.5 |
| 20260504191056 | 80 | 309 | 10.0 | 18.0 | 0.00 | 0.00 | 0.00 | 29 | 1000.5 |
| 20260504190559 | 80 | 295 | 9.0 | 18.0 | 0.00 | 0.00 | 0.00 | 28 | 1000.4 |
| 20260504190114 | 80 | 306 | 8.0 | 17.0 | 0.00 | 0.00 | 0.00 | 29 | 1000.6 |
| 20260504185555 | 79 | 263 | 9.0 | 21.0 | 0.00 | 0.00 | 0.00 | 29 | 1000.6 |
| 20260504185057 | 79 | 5 | 9.0 | 21.0 | 0.00 | 0.00 | 0.00 | 27 | 1000.6 |
| 20260504184605 | 79 | 317 | 9.0 | 17.0 | 0.00 | 0.00 | 0.00 | 28 | 1000.6 |
| 20260504184056 | 80 | 288 | 8.0 | 17.0 | 0.00 | 0.00 | 0.00 | 28 | 1000.6 |
| 20260504183559 | 80 | 295 | 8.0 | 16.0 | 0.00 | 0.00 | 0.00 | 29 | 1000.7 |
| 20260504183056 | 80 | 274 | 9.0 | 16.0 | 0.00 | 0.00 | 0.00 | 29 | 1000.6 |
| 20260504182559 | 80 | 305 | 8.0 | 15.0 | 0.00 | 0.00 | 0.00 | 29 | 1000.6 |
| 20260504182055 | 79 | 277 | 5.0 | 18.0 | 0.00 | 0.00 | 0.00 | 29 | 1000.6 |
| 20260504181554 | 79 | 301 | 10.0 | 19.0 | 0.00 | 0.00 | 0.00 | 27 | 1000.7 |
| 20260504181056 | 80 | 311 | 6.0 | 21.0 | 0.00 | 0.00 | 0.00 | 30 | 1000.8 |
| 20260504180558 | 79 | 313 | 11.0 | 21.0 | 0.00 | 0.00 | 0.00 | 31 | 1000.8 |
| 20260504180056 | 79 | 239 | 9.0 | 18.0 | 0.00 | 0.00 | 0.00 | 29 | 1000.7 |
| 20260504175600 | 79 | 317 | 10.0 | 19.0 | 0.00 | 0.00 | 0.00 | 30 | 1000.9 |
| 20260504175059 | 78 | 294 | 11.0 | 20.0 | 0.00 | 0.00 | 0.00 | 30 | 1000.8 |
| 20260504174617 | 78 | 267 | 9.0 | 28.0 | 0.00 | 0.00 | 0.00 | 31 | 1000.8 |
| 20260504174053 | 78 | 292 | 15.0 | 28.0 | 0.00 | 0.00 | 0.00 | 31 | 1000.8 |
| 20260504173555 | 78 | 299 | 10.0 | 18.0 | 0.00 | 0.00 | 0.00 | 31 | 1000.8 |
| 20260504173120 | 78 | 281 | 11.0 | 26.0 | 0.00 | 0.00 | 0.00 | 31 | 1000.7 |
| 20260504172555 | 78 | 295 | 12.0 | 26.0 | 0.00 | 0.00 | 0.00 | 32 | 1000.7 |
| 20260504172101 | 78 | 291 | 9.0 | 21.0 | 0.00 | 0.00 | 0.00 | 32 | 1000.7 |
| 20260504171558 | 78 | 348 | 8.0 | 23.0 | 0.00 | 0.00 | 0.00 | 31 | 1000.5 |
| 20260504171056 | 78 | 298 | 10.0 | 23.0 | 0.00 | 0.00 | 0.00 | 31 | 1000.5 |
| 20260504170557 | 78 | 309 | 11.0 | 26.0 | 0.00 | 0.00 | 0.00 | 32 | 1000.5 |
| 20260504160105 | 77 | 286 | 7.0 | 18.0 | 0.00 | 0.00 | 0.00 | 33 | 1000.5 |
| 20260504151056 | 71 | 234 | 7.0 | 14.0 | 0.00 | 0.00 | 0.00 | 46 | 1001.0 |
| 20260504150559 | 71 | 265 | 7.0 | 14.0 | 0.00 | 0.00 | 0.00 | 46 | 1000.9 |
| 20260504141057 | 61 | 215 | 2.0 | 5.0 | 0.00 | 0.00 | 0.00 | 57 | 1001.4 |
| 20260504140557 | 61 | 0 | 2.0 | 5.0 | 0.00 | 0.00 | 0.00 | 57 | 1001.4 |
| 20260504140109 | 60 | 215 | 2.0 | 5.0 | 0.00 | 0.00 | 0.00 | 58 | 1001.6 |
| 20260504130559 | 53 | 0 | 1.0 | 3.0 | 0.00 | 0.00 | 0.00 | 67 | 1001.6 |